#timestamp,LO_Frequency,Hit,StdDev 
1502402415.6,286046998.4,N,1.1
1502402435.5,286047000.8,N,1.1
1502402455.3,286046998.5,N,1.1
1502402475.1,286046999.9,N,1.1
1502402495.9,286047000.9,N,1.1
1502402515.7,286047002.4,N,1.2
1502402535.5,286046999.8,N,1.2
1502402555.4,286047002.0,N,1.3
1502402575.2,286047002.8,N,1.4
1502402595.1,286047002.4,N,1.4
1502402596.0,286047002.4,N,1.5
1502402615.8,286047002.8,N,1.6
1502402635.6,286047000.3,N,1.5
1502402655.5,286046999.9,N,1.5
1502402675.3,286046999.9,N,1.5
1502402695.2,286047002.2,N,1.5
1502402715.9,286047001.9,N,1.5
1502402735.7,286046999.8,N,1.5
1502402755.6,286047000.5,N,1.4
1502402775.4,286046999.8,N,1.4
1502402795.3,286047000.7,N,1.4
1502402815.1,286047000.4,N,1.4
1502402816.0,286047000.4,N,1.4
1502402835.8,286047000.6,N,1.4
1502402855.7,286046999.9,N,1.4
1502402875.5,286047000.5,N,1.3
1502402895.4,286047002.4,N,1.3
1502402915.2,286047002.6,N,1.3
1502402935.0,286047000.0,N,1.2
1502402935.9,286047000.0,N,1.2
1502402955.8,286047000.3,N,1.2
1502402975.6,286047000.4,N,1.2
1502402995.5,286047000.3,N,1.1
1502403015.3,286043316.3,Y,0.0
1502403035.1,286047000.4,P,0.3
1502403055.9,286047000.8,N,0.2
1502403075.7,286047000.3,N,0.3
1502403095.6,286047000.5,N,0.2
1502403115.4,286047000.4,N,0.2
1502403135.2,286047000.6,N,0.2
1502403155.1,286047002.2,Y,0.0
1502403156.0,286047002.2,P,0.8
1502403175.8,286046999.9,N,1.0
1502403195.7,286047001.2,N,0.8
1502403215.5,286047000.4,N,0.8
1502403235.3,286047000.8,N,0.7
1502403255.2,286047000.5,N,0.7
1502403275.0,286047000.9,N,0.6
1502403275.9,286042828.0,Y,0.0
1502403295.8,286046998.4,P,1.2
1502403315.6,286046998.5,N,1.1
1502403335.4,286047000.6,N,1.1
1502403355.3,286047001.2,N,1.2
1502403375.1,286046998.5,N,1.2
1502403395.8,286047000.7,N,1.2
1502403415.7,286047001.2,N,1.2
1502403435.5,286046998.9,N,1.2
1502403455.4,286046998.5,N,1.2
1502403475.2,286046998.6,N,1.2
1502403495.0,286046998.8,N,1.2
1502403495.9,286046998.8,N,1.1
1502403515.8,286047000.0,N,1.1
1502403535.6,286046998.5,N,1.1
1502403555.5,286047000.8,N,1.1
1502403575.3,286047001.1,N,1.1
1502403625.2,286046998.2,E,nan
1502403635.1,286047000.8,N,0.0
1502403636.0,286047000.8,P,0.0
1502403655.8,286046999.9,P,0.4
1502403675.7,286046998.1,Y,0.0
1502403695.5,286047001.2,P,0.4
1502403715.3,286047001.2,P,0.3
1502403735.2,286047001.0,N,0.3
1502403755.0,286046998.5,Y,0.0
1502403755.9,286046998.5,P,1.2
1502403775.8,286046999.3,N,1.0
1502403795.6,286046999.2,N,0.9
1502403815.4,286046996.5,Y,0.0
1502403835.3,286046999.1,P,0.2
1502403855.1,286046997.0,P,1.1
1502403875.9,286046996.8,N,1.2
1502403895.7,286046997.4,N,1.1
1502403915.5,286046999.5,N,1.2
1502403935.4,286046997.3,N,1.1
1502403955.2,286046997.6,N,1.1
1502403975.0,286046998.0,N,1.0
1502403976.0,286046998.0,N,1.0
1502403995.8,286046997.8,N,0.9
1502404015.6,286046997.9,N,0.9
1502404035.5,286046995.5,Y,0.0
1502404055.3,286046996.9,P,0.5
1502404075.2,286046997.5,P,0.4
1502404095.9,286046995.0,P,1.1
1502404115.7,286046995.6,Y,0.0
1502404135.6,286046998.4,P,0.8
1502404155.4,286046998.6,N,0.8
1502404175.3,286046998.4,N,0.7
1502404195.1,286046998.2,N,0.6
1502404196.0,286046998.2,N,0.6
1502404215.8,286046998.6,N,0.6
1502404235.7,286046998.9,N,0.6
1502404255.5,286046998.4,N,0.5
1502404275.4,286046999.0,N,0.6
1502404295.2,286046998.6,N,0.5
1502404315.0,286046998.9,N,0.5
1502404315.9,286046998.9,N,0.5
1502404335.8,286046999.0,N,0.5
1502404355.6,286046998.8,N,0.5
1502404375.5,286046998.6,N,0.5
1502404395.3,286046999.3,N,0.5
1502404415.1,286046998.2,Y,0.0
1502404435.9,286047000.4,P,0.9
1502404455.7,286047000.8,N,1.0
1502404475.6,286047000.8,N,0.9
1502404495.4,286047001.1,N,0.9
1502404515.2,286047001.0,N,0.9
1502404535.1,286047000.6,N,0.8
1502404536.0,286047000.6,N,0.8
1502404555.8,286046999.3,N,0.8
1502404575.7,286046998.7,N,0.9
1502404595.5,286046998.9,N,0.9
1502404615.3,286046999.4,N,0.9
1502404635.2,286046996.9,Y,0.0
1502404655.0,286046996.9,P,1.6
1502404655.9,286046996.9,N,1.5
1502404675.8,286046996.6,N,1.4
1502404695.6,286046999.1,N,1.4
1502404715.4,286046997.3,N,1.3
1502404735.3,286046996.7,N,1.3
1502404755.1,286046996.6,N,1.2
1502404775.9,286046996.9,N,1.2
1502404795.7,286046999.3,N,1.2
1502404815.5,286046999.2,N,1.3
1502404835.4,286046996.6,N,1.3
1502404855.2,286046999.6,N,1.3
1502404875.0,286046999.1,N,1.3
1502404875.9,286046999.1,N,1.3
1502404895.8,286046996.7,N,1.3
1502404915.6,286046996.8,N,1.3
1502404935.5,286046996.7,N,1.3
1502404955.3,286046997.3,N,1.2
1502404975.1,286046996.7,N,1.2
1502404995.9,286046998.9,N,1.2
1502405015.7,286046998.8,N,1.2
1502405035.6,286047001.2,N,1.4
1502405055.4,286047001.1,N,1.5
1502405075.2,286046998.9,N,1.5
1502405095.1,286046999.0,N,1.4
1502405096.0,286046999.0,N,1.4
1502405115.8,286046998.9,N,1.4
1502405135.7,286046999.0,N,1.4
1502405155.5,286047001.2,N,1.5
1502405175.3,286046998.6,N,1.4
1502405195.2,286047001.0,N,1.5
1502405215.0,286047000.5,N,1.5
1502405215.9,286047000.5,N,1.5
1502405235.8,286047001.0,N,1.6
1502405255.6,286047000.9,N,1.6
1502405275.4,286047000.6,N,1.6
1502405295.3,286047001.2,N,1.5
1502405315.1,286046998.5,N,1.5
1502405335.9,286047001.0,N,1.5
1502405355.7,286047000.4,N,1.5
1502405375.5,286047000.2,N,1.5
1502405395.4,286047000.2,N,1.5
1502405415.2,286047000.1,N,1.5
1502405435.1,286047003.6,N,1.6
1502405436.0,286047003.6,N,1.7
1502405455.8,286047001.9,N,1.6
1502405475.7,286047000.0,N,1.5
1502405495.5,286047002.1,N,1.5
1502405515.3,286047002.7,N,1.4
1502405535.2,286047000.2,N,1.3
1502405555.0,286047000.0,N,1.3
1502405555.9,286047000.0,N,1.3
1502405575.8,286047000.6,N,1.3
1502405595.6,286047001.5,N,1.3
1502405615.4,286046999.7,N,1.3
1502405635.3,286047002.6,N,1.3
1502405655.1,286047002.1,N,1.2
1502405675.9,286047002.2,N,1.2
1502405695.7,286047001.8,N,1.2
1502405715.5,286047002.5,N,1.2
1502405735.4,286047002.2,N,1.2
1502405755.2,286047001.7,N,1.2
1502405775.1,286047001.3,N,1.2
1502405776.0,286047001.3,N,1.2
1502405795.8,286047001.8,N,1.2
1502405815.6,286047001.5,N,1.2
1502405835.5,286047001.4,N,1.2
1502405855.3,286047001.8,N,1.1
1502405875.2,286047001.8,N,1.1
1502405895.9,286047001.5,N,1.0
1502405915.7,286047004.4,Y,0.0
1502405935.6,286047000.6,P,0.4
1502405955.4,286047000.6,N,0.4
1502405975.3,286046999.7,N,0.6
1502405995.1,286047002.8,Y,0.0
